Wind_Speed
13 24 24 16 13 21 26 25 23 22 22 23 21 21 23 19 20 18 15 15 18 18 19 15 14 14 14 13 13 13 11 12 9 6 9 12 14 16 16 16 15 14 15
9 18 24 20 16 18 23 28 26 21 23 21 20 19 21 24 22 20 17 13 15 18 19 20 16 16 16 15 14 14 13 11 11 5 5 2 8 20 19 17 16 14 13
9 14 16 20 16 13 18 20 28 22 21 22 19 16 17 11 18 20 21 21 15 17 22 19 17 16 18 18 17 16 16 14 12 14 4 0 3 2 11 18 16 15 12
8 7 15 20 17 10 10 15 22 21 19 19 20 20 15 10 12 18 18 14 21 20 18 17 18 17 17 19 17 19 19 18 13 12 16 18 8 1 2 7 11 10 11
10 7 9 22 24 18 16 16 18 21 19 19 12 14 10 8 9 8 7 15 4 5 11 15 16 17 16 17 16 17 18 19 19 15 11 18 20 20 8 3 6 12 11
4 8 10 24 23 20 18 14 20 20 20 19 12 10 10 9 5 4 5 6 5 4 1 8 9 11 13 13 11 14 18 17 22 20 21 18 10 12 13 6 7 6 8
8 7 10 15 21 19 19 18 17 21 19 17 15 14 13 14 15 14 8 5 7 9 6 9 10 12 14 18 16 17 26 21 21 21 27 27 27 20 17 16 7 8 5
9 9 9 17 22 21 20 19 17 14 16 20 20 20 22 19 13 24 28 23 22 17 17 14 12 14 14 23 22 23 23 20 21 22 30 26 26 25 21 19 13 1 6
9 10 9 19 22 21 25 21 19 18 16 19 23 21 23 21 23 28 24 23 15 14 14 13 7 15 18 26 33 33 28 26 24 25 26 29 29 26 25 25 21 15 4
10 9 8 17 21 20 22 18 18 14 11 11 24 23 27 25 29 29 29 28 26 24 23 21 22 25 21 21 19 14 15 16 17 19 20 20 22 24 23 24 24 20 14
5 10 8 22 20 16 20 17 12 11 10 12 11 13 13 12 13 15 15 14 14 14 12 12 12 13 13 13 13 14 14 15 18 19 21 23 23 23 22 23 21 21 19
6 6 7 19 23 17 13 15 15 14 11 12 11 11 12 12 13 13 11 10 11 13 12 11 11 12 13 13 13 12 13 15 17 17 20 20 20 23 23 21 19 20 16
8 7 8 10 16 15 15 16 17 17 17 17 17 17 13 14 12 11 12 11 10 7 8 8 7 6 6 7 8 9 10 10 12 13 15 17 18 19 18 15 14 15 14
6 5 5 6 14 15 15 15 16 17 17 16 14 13 13 13 12 11 10 10 9 7 6 5 3 3 3 4 6 7 8 9 10 9 11 13 13 14 14 15 14 14 12
7 6 6 6 12 15 17 17 15 15 15 16 16 16 14 13 12 11 10 9 8 6 4 3 2 2 4 6 6 6 7 8 8 9 10 11 12 12 12 13 14 13 13
7 7 6 8 11 14 15 16 15 15 15 15 14 13 12 11 10 9 8 7 6 5 3 3 2 3 6 8 8 8 9 9 9 10 10 9 10 11 13 13 13 12 13
7 8 7 9 15 16 17 16 16 16 15 14 13 13 12 12 10 10 9 8 7 5 4 3 4 5 7 9 9 11 10 11 11 11 11 11 11 11 12 13 13 13 12
7 7 9 11 11 13 15 15 15 14 14 13 13 13 13 12 11 11 10 9 8 7 7 6 5 5 5 5 7 6 9 10 11 12 12 12 13 12 12 12 13 11 10
6 9 11 13 14 14 14 16 15 14 14 14 14 13 12 12 11 11 11 10 9 8 7 5 5 5 5 5 4 5 9 11 11 11 12 12 12 11 11 12 13 11 10
13 12 9 7 9 13 15 15 15 14 14 14 14 14 14 13 12 10 10 8 7 7 7 7 6 6 6 6 6 6 9 11 11 11 10 9 11 11 10 11 11 11 11
10 9 9 9 5 3 9 15 14 16 13 13 13 14 12 12 11 11 8 6 8 7 7 7 7 7 6 8 6 7 9 10 11 11 13 11 11 11 10 9 9 9 9
10 10 9 7 5 2 2 3 5 11 13 12 12 11 10 10 9 9 8 8 9 9 9 9 9 9 7 7 10 10 8 9 12 13 11 11 10 9 10 9 8 8 9
8 8 7 6 6 5 3 3 6 7 8 10 10 9 8 8 8 10 9 10 10 11 12 13 12 11 10 9 9 10 9 10 10 11 11 11 11 8 8 7 7 10 11
7 5 6 5 4 3 3 5 5 6 9 9 10 10 9 8 8 10 11 12 14 14 15 15 15 14 13 13 12 12 11 11 10 10 11 12 11 10 7 8 8 10 10
7 5 3 2 0 0 2 2 4 5 7 7 7 7 7 8 9 11 13 14 16 15 16 18 18 18 18 20 16 15 16 16 13 12 13 14 14 13 12 10 10 12 12
7 6 7 6 4 5 3 4 4 5 5 5 7 7 7 8 9 9 12 14 16 15 15 15 15 17 17 14 17 15 14 15 14 15 18 18 17 16 15 15 14 15 14
Wind_Direction
189 148 149 158 186 176 168 175 182 191 197 197 189 180 186 187 189 195 192 194 192 196 196 197 202 200 203 206 211 215 217 220 215 215 233 246 242 240 240 237 238 239 235
200 151 149 153 175 187 179 173 180 185 198 197 188 192 192 195 202 199 195 186 202 199 198 196 198 204 203 209 210 210 214 224 219 211 230 319 256 242 240 241 240 237 239
204 151 149 162 135 180 186 168 172 179 193 202 199 197 200 195 202 210 203 206 218 218 209 204 202 204 209 213 215 216 214 221 220 223 216 339 257 236 224 230 227 226 227
186 171 156 142 146 142 158 147 156 167 181 185 194 206 180 170 202 222 213 211 240 234 223 210 210 209 210 216 220 223 220 221 220 219 235 246 261 293 306 226 223 218 211
174 186 144 152 147 143 137 137 155 167 166 165 179 151 142 134 151 166 149 135 227 247 240 236 226 226 226 227 225 236 226 224 229 225 217 233 246 251 244 269 221 220 225
215 158 126 135 133 134 125 133 140 150 156 154 158 170 201 189 175 225 177 159 233 305 245 224 244 250 247 247 253 265 252 242 235 230 232 240 232 224 217 223 227 198 199
199 159 137 135 145 144 135 134 145 151 158 165 178 188 203 214 181 230 221 199 242 249 284 276 272 275 283 281 277 268 253 253 249 252 249 255 249 246 235 221 227 220 186
183 174 159 151 158 162 148 148 153 153 174 182 193 201 210 208 205 236 257 242 240 226 224 242 262 257 269 274 265 264 257 268 283 269 258 250 248 244 241 227 212 221 204
179 167 155 167 175 181 172 170 169 167 175 193 214 216 232 229 225 236 233 222 210 216 219 206 228 247 244 260 265 260 266 273 278 265 266 257 253 253 245 242 233 214 188
172 164 156 163 171 184 187 172 173 166 179 202 211 220 227 225 222 233 235 233 230 229 231 233 226 230 243 247 243 247 251 255 259 261 259 259 254 251 244 235 230 223 219
128 165 160 164 159 155 167 172 185 200 198 172 175 199 219 211 198 199 200 213 205 211 203 204 195 204 219 230 234 235 244 249 252 255 259 259 259 252 236 229 229 225 219
100 96 97 121 122 123 130 133 149 165 171 175 173 167 182 181 181 187 182 183 184 182 186 199 205 217 228 238 241 251 256 260 264 265 255 253 248 240 233 225 223 222 212
69 69 78 100 115 125 135 141 145 148 155 166 170 162 159 150 151 153 152 160 159 162 164 170 185 208 236 250 261 266 265 264 262 255 250 246 230 239 229 215 210 217 197
109 98 91 111 133 146 143 143 143 154 157 155 150 142 151 150 150 149 147 146 142 149 148 159 175 195 246 260 270 271 264 257 251 242 236 231 226 227 220 208 201 205 195
120 132 134 118 131 138 147 149 154 160 155 155 151 149 154 154 153 150 148 143 148 157 158 171 204 238 254 264 260 265 261 244 233 230 223 218 209 202 208 203 196 194 188
121 115 116 124 135 142 145 148 152 156 159 156 154 152 154 150 153 149 143 145 145 143 151 180 217 248 268 276 265 254 255 253 244 230 223 219 202 191 188 185 185 193 191
132 138 142 146 154 160 156 156 161 162 160 156 156 158 164 161 159 158 156 159 161 167 179 200 216 229 258 268 264 254 246 242 237 222 199 182 177 177 177 176 174 173 176
135 138 146 144 149 150 160 161 167 163 161 161 166 172 173 170 173 171 170 175 180 181 193 209 213 236 267 257 257 241 227 216 202 194 188 183 170 173 172 161 155 149 153
77 87 134 153 158 164 166 164 170 172 174 178 181 183 184 186 184 185 188 194 196 199 208 214 218 222 226 240 215 213 200 187 177 180 177 181 175 168 166 161 147 141 143
65 68 67 81 146 169 175 174 179 181 190 191 191 192 189 191 188 195 201 207 216 224 213 209 215 217 213 212 213 202 193 177 169 176 180 184 181 165 168 171 163 157 163
81 84 78 78 55 75 178 183 187 191 195 188 184 188 192 191 190 200 215 205 209 216 210 207 209 220 217 207 217 199 194 200 187 189 177 173 170 171 167 179 176 192 179
72 68 75 65 44 39 217 177 183 172 173 181 190 200 195 194 200 208 211 214 211 211 214 216 217 218 215 213 207 205 201 207 208 196 189 180 173 175 173 182 173 167 178
84 67 78 92 62 60 78 162 170 178 188 189 191 191 192 200 201 206 211 209 213 214 220 222 221 224 224 220 212 207 202 198 208 204 199 191 181 175 173 179 166 173 183
61 52 57 58 63 41 84 124 162 187 184 180 190 197 198 208 220 222 222 223 223 225 230 228 229 228 226 220 213 212 210 196 202 198 191 192 197 202 206 194 187 199 197
48 40 43 65 26 186 133 141 184 193 192 198 207 211 219 227 237 241 239 240 247 246 242 243 241 231 229 226 217 216 216 213 213 204 198 196 202 205 208 216 217 210 207
41 36 31 25 18 3 336 275 245 229 222 217 225 232 237 240 244 251 259 248 248 248 251 255 251 250 250 247 222 215 224 225 216 202 206 212 217 222 224 222 218 220 221
Height
746 752 758 766 771 772 773 779 785 790 796 800 804 809 813 819 823 827 829 833 837 838 841 844 847 848 850 852 854 856 858 859 860 861 861 861 862 862 863 864 864 865 865
744 751 756 764 770 773 772 774 781 787 792 797 802 808 810 815 819 823 826 831 835 837 838 839 842 845 847 849 851 853 856 858 860 860 861 861 860 859 860 861 861 862 863
744 749 755 762 768 772 773 773 777 784 790 797 801 805 809 814 815 821 822 827 832 835 835 836 839 841 843 845 848 850 852 855 857 859 860 862 862 857 857 857 858 859 860
741 746 752 759 766 771 772 775 775 782 788 796 799 803 809 813 816 821 823 820 829 831 833 835 837 839 840 842 845 848 847 852 853 855 856 859 860 861 859 856 857 857 858
740 744 751 756 763 769 772 774 776 782 787 793 801 803 812 814 819 824 820 810 825 828 829 832 834 835 839 839 839 845 845 848 850 850 850 853 854 856 860 858 855 855 856
739 744 749 758 763 767 770 775 777 782 786 792 799 804 809 812 814 821 820 818 824 824 825 830 832 834 837 837 836 842 844 843 844 844 847 849 850 848 851 855 853 853 854
741 745 749 758 763 766 769 774 779 781 785 791 796 801 806 811 808 822 818 817 819 822 822 829 828 832 835 836 833 836 840 837 838 839 841 840 843 847 847 848 849 850 852
738 743 746 754 760 765 768 771 778 781 783 789 794 797 801 803 802 813 818 814 812 815 816 822 827 828 828 832 831 833 833 832 832 835 834 836 838 841 842 842 845 848 848
736 740 745 750 757 764 766 768 773 777 782 784 792 795 800 800 802 811 812 811 808 812 814 815 819 820 823 825 828 828 824 825 828 832 832 834 834 835 836 837 839 840 844
732 736 742 749 756 761 765 768 770 774 779 779 788 790 793 797 802 806 808 806 808 809 811 813 816 819 821 823 823 822 823 824 825 826 828 829 831 831 831 831 832 834 835
731 734 740 745 752 759 763 764 767 768 773 779 786 790 794 797 798 802 802 804 802 805 807 811 813 815 817 819 820 819 819 820 821 822 822 824 825 826 826 827 827 829 830
733 735 740 745 753 759 763 764 768 772 776 782 786 789 795 797 796 798 799 802 805 805 806 809 810 813 814 816 816 815 815 816 816 816 818 818 819 819 820 822 824 827 826
737 740 745 750 755 759 765 770 772 775 780 786 788 790 795 794 797 799 799 801 803 805 805 806 810 811 812 812 811 811 812 812 812 814 815 815 815 817 816 818 820 824 823
744 747 749 752 757 762 768 771 774 777 781 784 785 787 792 793 795 797 799 800 800 803 805 805 806 807 809 809 810 810 809 811 812 810 811 812 813 813 815 815 817 821 821
749 751 755 757 760 764 768 772 775 778 780 784 785 788 791 792 794 796 798 799 800 802 803 804 805 804 807 807 808 809 809 809 809 810 810 810 809 809 812 814 817 820 821
749 753 756 759 763 766 770 773 776 778 780 783 784 785 790 792 794 795 796 798 799 800 803 805 804 803 805 805 806 806 806 806 807 808 809 808 809 809 811 812 814 816 818
752 756 758 760 763 767 770 773 776 778 781 782 783 787 791 791 793 794 796 799 801 801 802 800 802 803 803 804 803 803 804 804 805 806 807 808 810 810 810 812 812 814 816
752 755 757 760 763 766 770 773 775 778 780 782 785 788 790 791 794 795 797 798 798 799 801 802 802 801 801 802 802 802 803 804 804 806 809 809 808 811 810 812 811 812 814
754 756 757 761 765 768 771 773 776 778 780 782 784 787 788 790 792 793 795 797 797 796 797 798 799 801 802 802 801 802 803 803 804 807 808 810 810 810 811 810 810 812 815
759 760 761 763 765 768 770 773 775 777 780 782 783 785 786 788 790 791 792 792 792 795 796 798 799 799 799 801 802 802 803 802 803 807 808 809 809 809 810 810 810 812 815
763 764 765 766 767 768 770 772 774 775 778 781 782 783 784 786 787 788 789 790 793 794 795 795 796 798 798 799 800 801 802 803 804 806 806 807 809 809 810 810 810 813 814
765 765 766 768 768 769 769 771 772 773 775 777 780 782 782 783 785 786 787 789 790 791 793 794 795 796 796 797 799 800 802 803 804 805 805 806 808 808 808 810 809 812 813
768 769 769 769 769 769 769 772 772 772 774 776 779 779 781 782 783 785 786 788 789 789 790 792 792 792 794 795 796 799 800 802 802 804 804 805 806 807 808 809 808 811 812
768 769 769 769 771 770 770 770 771 773 774 775 776 778 778 780 782 783 783 785 787 787 788 789 789 790 791 792 794 797 798 799 800 801 803 804 806 806 807 808 808 809 811
769 770 771 771 772 772 770 770 772 773 773 774 775 775 776 777 779 780 781 781 783 784 784 784 786 787 787 787 790 792 794 795 797 799 801 802 804 804 805 805 807 808 809
772 772 772 771 769 769 769 770 771 771 771 771 773 773 774 776 776 777 778 779 780 780 781 781 781 782 783 784 786 789 791 793 795 796 798 798 799 800 801 802 804 805 805